SL-16 R/B (24298 NORAD) Tracking and Keplerian Element Data

This shows tracking and keplerian element data for the satellite.

Feedback or suggestion? Click here.




ElementValue
Catalog24298
NameSL-16 R/B
Epoch Orbit41084
Epoch Day13.14324568
Epoch Year2024
RAAN38.2372
Inclination70.8178
Eccentricity0.0017562
Argument of Perigee222.0873
Mean Anonmoly137.8899
Mean Motion14.12507853
Decay Rate-1.29E-06
L11 24298U 96051B 24013.14324568 -.00000129 00000+0 -43417-4 0 9995
L22 24298 70.8178 38.2372 0017562 222.0873 137.8899 14.12507853410846



Live tracking and technical data element details for SL-16 R/B (NORAD 24298). SL-16 R/B can be tracked NOW for your location showing map with azimuth and elevation plus other details from your city location.







IsCatalogInMostPopularTable: catalog: 24298, numindb: 312
Update: records affected: 1



GetName: 24298 SL-16 R/B

Hit Count: updated at: Fri, 19 Apr 2024 12:07:44 GMT